This demonstration page uses our WeatherBlox Daily Observations layout. Learn more.

Left ArrowRight Arrow

Hourly Observations for June 1, 2021

Temp ( °F °C ) Dew Point ( °F °C ) Humidity (%) Winds ( mph kmh ) Pressure ( in mb ) Visibility ( mi km ) Precip ( " mm )
12:53 am 00:53 Clear 68 20 54 12.2 61 61 E 6 9 30.22 1024 10 16 0.00 0.00
1:53 am 01:53 Clear 66 18.9 54 12.2 65 65 E 5 7 30.22 1023 10 16 0.00 0.00
2:53 am 02:53 Mostly Clear 59 15 54 12.2 83 83 Calm 30.22 1023 10 16 0.00 0.00
3:53 am 03:53 Clear 60 15.6 55 12.8 84 84 Calm 30.22 1023 10 16 0.00 0.00
4:53 am 04:53 Clear 58 14.4 54 12.2 87 87 Calm 30.23 1024 10 16 0.00 0.00
5:53 am 05:53 Clear 59 15 54 12.2 83 83 Calm 30.24 1024 10 16 0.00 0.00
6:53 am 06:53 Partly Cloudy 57 13.9 54 12.2 90 90 Calm 30.25 1025 10 16 0.00 0.00
7:53 am 07:53 Sunny 62 16.7 56 13.3 80 80 Calm 30.25 1024 10 16 0.00 0.00
8:53 am 08:53 Mostly Sunny 66 18.9 56 13.3 70 70 VRB 5 7 30.26 1025 10 16 0.00 0.00
9:53 am 09:53 Sunny 69 20.6 55 12.8 61 61 SE 7 11 30.26 1025 10 16 0.00 0.00
10:53 am 10:53 Mostly Sunny 73 22.8 55 12.8 53 53 VRB 5 7 30.25 1025 10 16 0.00 0.00
11:53 am 11:53 Mostly Sunny 75 23.9 56 13.3 52 52 SSE 7 11 30.25 1024 10 16 0.00 0.00
12:53 pm 12:53 Sunny 77 25 54 12.2 45 45 E 7 11 30.23 1024 10 16 0.00 0.00
1:53 pm 13:53 Mostly Cloudy 78 25.6 56 13.3 47 47 SSW 10 17 30.21 1023 10 16 0.00 0.00
2:53 pm 14:53 Mostly Cloudy 80 26.7 55 12.8 42 42 VRB 5 7 30.19 1022 10 16 0.00 0.00
3:53 pm 15:53 Mostly Cloudy 81 27.2 55 12.8 41 41 N 3 6 30.17 1022 10 16 0.00 0.00
4:53 pm 16:53 Mostly Sunny 81 27.2 54 12.2 39 39 ESE 6 9 30.15 1021 10 16 0.00 0.00
5:53 pm 17:53 Sunny 81 27.2 52 11.1 37 37 Calm 30.14 1021 10 16 0.00 0.00
6:53 pm 18:53 Mostly Sunny 81 27.2 53 11.7 38 38 VRB 5 7 30.12 1020 10 16 0.00 0.00
7:53 pm 19:53 Sunny 79 26.1 53 11.7 41 41 ESE 5 7 30.13 1020 10 16 0.00 0.00
8:53 pm 20:53 Clear 77 25 54 12.2 45 45 SE 5 7 30.13 1020 10 16 0.00 0.00
9:53 pm 21:53 Clear 75 23.9 54 12.2 48 48 E 5 7 30.13 1020 10 16 0.00 0.00
10:53 pm 22:53 Clear 73 22.8 54 12.2 51 51 E 5 7 30.14 1021 10 16 0.00 0.00
11:53 pm 23:53 Clear 72 22.2 55 12.8 55 55 E 5 7 30.14 1021 10 16 0.00 0.00

Powered by AerisWeather